SBI1255 UUDD-ULMK

Flight info

Callsign SBI1255
Flight time 1h 54m
Altitude 37000
Route RILPO4T RILPO DCT RANTO T753 DEGOP T747 ARMAD ARMAD4A
Aircraft A320/M-SDFGJ1IYRW/LB1

Departure

Time 2026-04-26 09:59
Airport Domodedovo International Airport (UUDD)

Arrival

Time 2026-04-26 11:54
Airport Kirovsk-Apatity Airport (ULMK)
Time Latitude Longitude Altitude Speed Heading
2026-04-26 09:14 55.41232 37.90127 572 ft 0 kts 234°
2026-04-26 09:24 55.41232 37.90128 571 ft 0 kts 234°
2026-04-26 09:25 55.41232 37.90127 571 ft 0 kts 234°
2026-04-26 09:25 55.41232 37.90128 571 ft 0 kts 234°
2026-04-26 09:44 55.41234 37.90132 599 ft 3 kts 234°
2026-04-26 09:44 55.41250 37.90170 576 ft 4 kts 234°
2026-04-26 09:45 55.41262 37.90200 575 ft 4 kts 218°
2026-04-26 09:45 55.41281 37.90206 574 ft 3 kts 145°
2026-04-26 09:45 55.41298 37.90184 577 ft 1 kts 145°
2026-04-26 09:48 55.41294 37.90189 575 ft 3 kts 145°
2026-04-26 09:48 55.41235 37.90260 570 ft 12 kts 146°
2026-04-26 09:48 55.41202 37.90298 569 ft 5 kts 146°
2026-04-26 09:48 55.41167 37.90311 568 ft 6 kts 209°
2026-04-26 09:49 55.41146 37.90260 568 ft 5 kts 237°
2026-04-26 09:49 55.41131 37.90221 568 ft 3 kts 236°
2026-04-26 09:49 55.41121 37.90196 572 ft 3 kts 236°
2026-04-26 09:49 55.41100 37.90143 572 ft 8 kts 235°
2026-04-26 09:50 55.41059 37.90035 568 ft 13 kts 236°
2026-04-26 09:50 55.41005 37.89898 570 ft 14 kts 236°
2026-04-26 09:50 55.40947 37.89747 573 ft 15 kts 236°
2026-04-26 09:50 55.40894 37.89612 576 ft 8 kts 235°
2026-04-26 09:51 55.40860 37.89538 572 ft 8 kts 220°
2026-04-26 09:51 55.40820 37.89460 573 ft 10 kts 236°
2026-04-26 09:51 55.40789 37.89371 570 ft 7 kts 245°
2026-04-26 09:51 55.40782 37.89295 571 ft 5 kts 268°
2026-04-26 09:52 55.40786 37.89236 571 ft 5 kts 283°
2026-04-26 09:52 55.40830 37.89117 575 ft 12 kts 322°
2026-04-26 09:52 55.40918 37.89011 575 ft 16 kts 326°
2026-04-26 09:53 55.41002 37.88908 582 ft 14 kts 326°
2026-04-26 09:53 55.41077 37.88819 577 ft 12 kts 326°
2026-04-26 09:53 55.41139 37.88744 577 ft 10 kts 325°
2026-04-26 09:53 55.41192 37.88680 579 ft 10 kts 326°
2026-04-26 09:54 55.41265 37.88593 579 ft 16 kts 325°
2026-04-26 09:54 55.41370 37.88467 580 ft 21 kts 326°
2026-04-26 09:54 55.41485 37.88329 581 ft 20 kts 326°
2026-04-26 09:54 55.41592 37.88201 582 ft 17 kts 326°
2026-04-26 09:55 55.41685 37.88089 582 ft 15 kts 325°
2026-04-26 09:55 55.41764 37.87993 583 ft 13 kts 326°
2026-04-26 09:55 55.41825 37.87919 587 ft 8 kts 326°
2026-04-26 09:55 55.41864 37.87873 588 ft 7 kts 326°
2026-04-26 09:56 55.41913 37.87814 592 ft 9 kts 325°
2026-04-26 09:56 55.41977 37.87738 595 ft 13 kts 326°
2026-04-26 09:56 55.42066 37.87629 597 ft 15 kts 325°
2026-04-26 09:56 55.42127 37.87557 599 ft 8 kts 326°
2026-04-26 09:57 55.42172 37.87501 598 ft 8 kts 320°
2026-04-26 09:57 55.42177 37.87428 598 ft 5 kts 244°
2026-04-26 09:57 55.42161 37.87379 598 ft 4 kts 240°
2026-04-26 09:57 55.42143 37.87332 597 ft 5 kts 236°
2026-04-26 09:58 55.42114 37.87262 596 ft 5 kts 233°
2026-04-26 09:58 55.42098 37.87242 596 ft 3 kts 198°
2026-04-26 09:58 55.42072 37.87259 596 ft 0 kts 145°
2026-04-26 09:59 55.41973 37.87376 596 ft 52 kts 146°
2026-04-26 09:59 55.41476 37.87975 586 ft 118 kts 146°
2026-04-26 09:59 55.40648 37.88976 617 ft 166 kts 147°
2026-04-26 09:59 55.39729 37.90102 1366 ft 160 kts 149°
2026-04-26 10:00 55.38805 37.91214 2087 ft 161 kts 153°
2026-04-26 10:00 55.37801 37.91989 2777 ft 157 kts 169°
2026-04-26 10:00 55.36757 37.92557 3436 ft 157 kts 168°
2026-04-26 10:00 55.35699 37.93141 3931 ft 167 kts 168°
2026-04-26 10:01 55.34521 37.93788 4228 ft 189 kts 167°
2026-04-26 10:01 55.33187 37.94522 4478 ft 213 kts 167°
2026-04-26 10:01 55.31683 37.95061 4961 ft 223 kts 189°
2026-04-26 10:01 55.30324 37.93960 5811 ft 219 kts 228°
2026-04-26 10:02 55.29527 37.91682 6669 ft 221 kts 242°
2026-04-26 10:02 55.28834 37.89220 7392 ft 230 kts 243°
2026-04-26 10:02 55.28166 37.86638 8220 ft 235 kts 250°
2026-04-26 10:02 55.28151 37.83737 9051 ft 249 kts 284°
2026-04-26 10:03 55.29153 37.81105 9611 ft 277 kts 313°
2026-04-26 10:03 55.30899 37.79391 10159 ft 301 kts 341°
2026-04-26 10:03 55.33006 37.78771 10905 ft 309 kts 348°
2026-04-26 10:03 55.35161 37.78271 11707 ft 313 kts 348°
2026-04-26 10:04 55.37331 37.77780 12487 ft 317 kts 348°
2026-04-26 10:04 55.39532 37.77281 13283 ft 321 kts 348°
2026-04-26 10:04 55.41756 37.76769 14018 ft 324 kts 348°
2026-04-26 10:04 55.44012 37.76247 14741 ft 329 kts 348°
2026-04-26 10:05 55.46293 37.75715 15423 ft 333 kts 347°
2026-04-26 10:05 55.48596 37.75170 16088 ft 336 kts 347°
2026-04-26 10:05 55.50955 37.74874 16758 ft 345 kts 358°
2026-04-26 10:05 55.53349 37.75515 17412 ft 354 kts 13°
2026-04-26 10:06 55.55621 37.77123 18020 ft 361 kts 27°
2026-04-26 10:06 55.57807 37.79377 18564 ft 366 kts 28°
2026-04-26 10:06 55.60026 37.81675 19145 ft 370 kts 28°
2026-04-26 10:06 55.62269 37.83959 19689 ft 373 kts 24°
2026-04-26 10:07 55.64669 37.85708 20150 ft 377 kts 13°
2026-04-26 10:07 55.67259 37.86876 20274 ft 391 kts
2026-04-26 10:07 55.69995 37.87709 20418 ft 405 kts
2026-04-26 10:07 55.72842 37.88403 20545 ft 421 kts
2026-04-26 10:08 55.75776 37.89111 20867 ft 430 kts
2026-04-26 10:08 55.78755 37.89916 21345 ft 436 kts
2026-04-26 10:08 55.81759 37.90827 21855 ft 440 kts
2026-04-26 10:08 55.84790 37.91825 22365 ft 444 kts
2026-04-26 10:09 55.87847 37.92872 22847 ft 448 kts
2026-04-26 10:09 55.90874 37.93918 23255 ft 451 kts
2026-04-26 10:09 55.93977 37.94979 23672 ft 454 kts
2026-04-26 10:09 55.97095 37.96032 24064 ft 456 kts
2026-04-26 10:10 56.00221 37.97074 24444 ft 459 kts
2026-04-26 10:10 56.03380 37.98115 24818 ft 462 kts
2026-04-26 10:10 56.06551 37.99156 25204 ft 464 kts
2026-04-26 10:10 56.09701 38.00195 25569 ft 467 kts
2026-04-26 10:11 56.12908 38.01260 25928 ft 469 kts
2026-04-26 10:11 56.16141 38.02338 26280 ft 472 kts
2026-04-26 10:11 56.19388 38.03420 26651 ft 474 kts
2026-04-26 10:11 56.22648 38.04511 26998 ft 477 kts
2026-04-26 10:12 56.25910 38.05612 27327 ft 479 kts
2026-04-26 10:12 56.29171 38.06718 27648 ft 482 kts
2026-04-26 10:12 56.32469 38.07835 27970 ft 483 kts
2026-04-26 10:12 56.35787 38.08955 28269 ft 486 kts
2026-04-26 10:13 56.39122 38.10079 28571 ft 489 kts
2026-04-26 10:13 56.42484 38.11214 28868 ft 491 kts
2026-04-26 10:13 56.45848 38.12354 29168 ft 493 kts
2026-04-26 10:13 56.49227 38.13507 29429 ft 495 kts
2026-04-26 10:14 56.52622 38.14672 29647 ft 497 kts
2026-04-26 10:14 56.56014 38.15838 29942 ft 496 kts
2026-04-26 10:14 56.59358 38.16984 30251 ft 495 kts
2026-04-26 10:14 56.62731 38.18137 30564 ft 494 kts
2026-04-26 10:15 56.66109 38.19292 30875 ft 493 kts
2026-04-26 10:15 56.69472 38.20459 31179 ft 493 kts
2026-04-26 10:15 56.72839 38.21672 31502 ft 492 kts
2026-04-26 10:15 56.76188 38.22915 31815 ft 491 kts
2026-04-26 10:16 56.79522 38.24175 32128 ft 490 kts
2026-04-26 10:16 56.82861 38.25513 32432 ft 491 kts 12°
2026-04-26 10:16 56.86095 38.27587 32776 ft 494 kts 21°
2026-04-26 10:16 56.89130 38.30549 33102 ft 496 kts 31°
2026-04-26 10:17 56.91894 38.34339 33424 ft 497 kts 39°
2026-04-26 10:17 56.94518 38.38461 33683 ft 496 kts 39°
2026-04-26 10:17 56.97132 38.42565 33950 ft 495 kts 39°
2026-04-26 10:17 56.99747 38.46670 34208 ft 494 kts 39°
2026-04-26 10:18 57.02361 38.50780 34462 ft 494 kts 39°
2026-04-26 10:18 57.04961 38.54876 34705 ft 493 kts 39°
2026-04-26 10:18 57.07562 38.58981 34945 ft 492 kts 39°
2026-04-26 10:18 57.10154 38.63084 35173 ft 492 kts 39°
2026-04-26 10:19 57.12742 38.67183 35409 ft 491 kts 39°
2026-04-26 10:19 57.15325 38.71284 35614 ft 490 kts 39°
2026-04-26 10:19 57.17907 38.75394 35846 ft 490 kts 39°
2026-04-26 10:19 57.20482 38.79499 36060 ft 489 kts 39°
2026-04-26 10:20 57.23049 38.83610 36257 ft 489 kts 39°
2026-04-26 10:20 57.24747 38.86334 36375 ft 489 kts 39°
2026-04-26 10:20 57.30745 38.95967 36422 ft 489 kts 39°
2026-04-26 10:21 57.35864 39.04234 36420 ft 488 kts 39°
2026-04-26 10:21 57.40980 39.12508 36421 ft 488 kts 40°
2026-04-26 10:22 57.46084 39.20824 36422 ft 488 kts 40°
2026-04-26 10:22 57.51182 39.29146 36425 ft 488 kts 39°
2026-04-26 10:23 57.56254 39.37404 36432 ft 488 kts 39°
2026-04-26 10:23 57.61364 39.45728 36434 ft 488 kts 39°
2026-04-26 10:24 57.66460 39.54086 36437 ft 488 kts 39°
2026-04-26 10:24 57.71545 39.62481 36444 ft 488 kts 40°
2026-04-26 10:25 57.76618 39.70909 36446 ft 487 kts 40°
2026-04-26 10:25 57.81754 39.79173 36450 ft 485 kts 32°
2026-04-26 10:26 57.84651 39.82330 36453 ft 481 kts 21°
2026-04-26 10:26 57.87777 39.84498 36447 ft 476 kts 11°
2026-04-26 10:26 57.94268 39.85699 36448 ft 465 kts 351°
2026-04-26 10:27 58.00598 39.83641 36444 ft 462 kts 345°
2026-04-26 10:27 58.06905 39.81303 36443 ft 462 kts 345°
2026-04-26 10:28 58.13211 39.78952 36444 ft 462 kts 345°
2026-04-26 10:28 58.19512 39.76587 36449 ft 462 kts 345°
2026-04-26 10:29 58.25808 39.74212 36449 ft 461 kts 345°
2026-04-26 10:29 58.32101 39.71826 36449 ft 461 kts 345°
2026-04-26 10:30 58.38395 39.69443 36450 ft 461 kts 345°
2026-04-26 10:30 58.44682 39.67051 36448 ft 461 kts 345°
2026-04-26 10:31 58.50955 39.64642 36448 ft 460 kts 345°
2026-04-26 10:31 58.57230 39.62219 36449 ft 460 kts 345°
2026-04-26 10:32 58.63513 39.59804 36445 ft 460 kts 345°
2026-04-26 10:32 58.69787 39.57377 36448 ft 460 kts 345°
2026-04-26 10:33 58.75044 39.55707 36453 ft 463 kts 351°
2026-04-26 10:33 58.81467 39.54619 36451 ft 463 kts 351°
2026-04-26 10:34 58.87855 39.53548 36452 ft 462 kts 352°
2026-04-26 10:34 58.94267 39.52508 36447 ft 462 kts 352°
2026-04-26 10:35 59.00681 39.51450 36450 ft 462 kts 352°
2026-04-26 10:35 59.07095 39.50391 36454 ft 463 kts 352°
2026-04-26 10:36 59.13509 39.49319 36455 ft 463 kts 352°
2026-04-26 10:36 59.19919 39.48234 36455 ft 462 kts 352°
2026-04-26 10:37 59.26329 39.47164 36451 ft 462 kts 352°
2026-04-26 10:37 59.32731 39.46093 36456 ft 462 kts 352°
2026-04-26 10:38 59.39128 39.45018 36452 ft 461 kts 352°
2026-04-26 10:38 59.45522 39.43934 36452 ft 461 kts 352°
2026-04-26 10:39 59.51911 39.42846 36459 ft 461 kts 352°
2026-04-26 10:39 59.58296 39.41770 36455 ft 460 kts 352°
2026-04-26 10:40 59.64668 39.40687 36453 ft 459 kts 352°
2026-04-26 10:40 59.71035 39.39585 36452 ft 459 kts 352°
2026-04-26 10:41 59.77356 39.38487 36451 ft 459 kts 352°
2026-04-26 10:41 59.83549 39.36007 36449 ft 453 kts 339°
2026-04-26 10:42 59.89548 39.32160 36440 ft 453 kts 339°
2026-04-26 10:42 59.95544 39.28302 36441 ft 453 kts 339°
2026-04-26 10:43 60.01543 39.24410 36445 ft 453 kts 339°
2026-04-26 10:43 60.07542 39.20508 36443 ft 453 kts 339°
2026-04-26 10:44 60.13552 39.16584 36442 ft 453 kts 339°
2026-04-26 10:44 60.19526 39.12680 36441 ft 453 kts 339°
2026-04-26 10:45 60.25532 39.08734 36442 ft 453 kts 339°
2026-04-26 10:45 60.31533 39.04762 36441 ft 453 kts 339°
2026-04-26 10:46 60.37534 39.00792 36442 ft 453 kts 339°
2026-04-26 10:46 60.43492 38.96821 36438 ft 453 kts 339°
2026-04-26 10:47 60.49479 38.92810 36435 ft 452 kts 339°
2026-04-26 10:47 60.55432 38.88823 36434 ft 452 kts 339°
2026-04-26 10:48 60.61411 38.84805 36427 ft 452 kts 339°
2026-04-26 10:48 60.67383 38.80762 36428 ft 453 kts 339°
2026-04-26 10:49 60.73365 38.76697 36432 ft 453 kts 339°
2026-04-26 10:49 60.79343 38.72606 36434 ft 453 kts 339°
2026-04-26 10:50 60.84317 38.69192 36436 ft 453 kts 339°
2026-04-26 10:50 60.91311 38.64390 36440 ft 454 kts 339°
2026-04-26 10:51 61.00299 38.58190 36449 ft 454 kts 339°
2026-04-26 10:52 61.06291 38.54016 36452 ft 455 kts 339°
2026-04-26 10:52 61.12295 38.49839 36454 ft 455 kts 339°
2026-04-26 10:53 61.18247 38.45687 36456 ft 455 kts 339°
2026-04-26 10:53 61.24266 38.41560 36454 ft 456 kts 343°
2026-04-26 10:54 61.33570 38.37214 36469 ft 458 kts 345°
2026-04-26 10:54 61.39789 38.34350 36462 ft 458 kts 345°
2026-04-26 10:55 61.46004 38.31449 36465 ft 458 kts 345°
2026-04-26 10:55 61.52218 38.28535 36469 ft 458 kts 345°
2026-04-26 10:56 61.58440 38.25612 36471 ft 458 kts 345°
2026-04-26 10:56 61.64677 38.22692 36474 ft 458 kts 345°
2026-04-26 10:57 61.70909 38.19728 36476 ft 458 kts 345°
2026-04-26 10:57 61.77091 38.16784 36475 ft 458 kts 345°
2026-04-26 10:58 61.83318 38.13825 36476 ft 458 kts 345°
2026-04-26 10:58 61.89540 38.10834 36479 ft 458 kts 345°
2026-04-26 10:59 61.95722 38.07853 36480 ft 458 kts 344°
2026-04-26 10:59 62.01945 38.04801 36480 ft 458 kts 344°
2026-04-26 11:00 62.08173 38.01685 36487 ft 458 kts 344°
2026-04-26 11:00 62.14356 37.98567 36488 ft 459 kts 344°
2026-04-26 11:01 62.20588 37.95428 36482 ft 459 kts 344°
2026-04-26 11:01 62.26773 37.92328 36463 ft 458 kts 344°
2026-04-26 11:02 62.32994 37.89188 36463 ft 458 kts 344°
2026-04-26 11:02 62.39209 37.86037 36461 ft 458 kts 344°
2026-04-26 11:03 62.45389 37.82886 36460 ft 458 kts 344°
2026-04-26 11:03 62.51616 37.79682 36468 ft 459 kts 344°
2026-04-26 11:04 62.57794 37.76491 36477 ft 459 kts 344°
2026-04-26 11:04 62.64016 37.73256 36484 ft 460 kts 343°
2026-04-26 11:05 62.70184 37.69567 36493 ft 459 kts 341°
2026-04-26 11:05 62.76287 37.65411 36500 ft 459 kts 340°
2026-04-26 11:06 62.81369 37.61931 36505 ft 459 kts 340°
2026-04-26 11:06 62.88502 37.57234 36513 ft 459 kts 341°
2026-04-26 11:07 62.94618 37.53239 36520 ft 459 kts 341°
2026-04-26 11:07 63.00751 37.49176 36526 ft 459 kts 341°
2026-04-26 11:08 63.06886 37.45076 36535 ft 460 kts 341°
2026-04-26 11:08 63.12986 37.40983 36541 ft 460 kts 341°
2026-04-26 11:09 63.19128 37.36851 36550 ft 460 kts 341°
2026-04-26 11:09 63.25228 37.32720 36558 ft 460 kts 341°
2026-04-26 11:10 63.31347 37.28482 36559 ft 460 kts 340°
2026-04-26 11:10 63.37437 37.24060 36566 ft 460 kts 340°
2026-04-26 11:11 63.43518 37.19595 36569 ft 460 kts 339°
2026-04-26 11:11 63.49560 37.14878 36579 ft 460 kts 338°
2026-04-26 11:12 63.55583 37.10038 36586 ft 460 kts 338°
2026-04-26 11:12 63.61613 37.05216 36590 ft 460 kts 338°
2026-04-26 11:13 63.67655 37.00410 36592 ft 460 kts 338°
2026-04-26 11:13 63.73688 36.95597 36602 ft 460 kts 338°
2026-04-26 11:14 63.79734 36.90754 36598 ft 460 kts 338°
2026-04-26 11:14 63.84749 36.86714 36603 ft 460 kts 338°
2026-04-26 11:15 63.91802 36.81005 36604 ft 461 kts 338°
2026-04-26 11:15 63.97839 36.76101 36615 ft 461 kts 338°
2026-04-26 11:16 64.03883 36.71167 36616 ft 461 kts 338°
2026-04-26 11:16 64.09922 36.66218 36623 ft 461 kts 338°
2026-04-26 11:17 64.15959 36.61243 36626 ft 461 kts 338°
2026-04-26 11:17 64.22004 36.56244 36628 ft 462 kts 338°
2026-04-26 11:18 64.27021 36.52063 36631 ft 462 kts 338°
2026-04-26 11:18 64.34042 36.46188 36633 ft 462 kts 338°
2026-04-26 11:19 64.39102 36.41954 36640 ft 462 kts 338°
2026-04-26 11:19 64.46123 36.36068 36643 ft 462 kts 338°
2026-04-26 11:20 64.51183 36.31798 36647 ft 462 kts 338°
2026-04-26 11:20 64.57217 36.26659 36650 ft 462 kts 338°
2026-04-26 11:21 64.63245 36.21405 36653 ft 461 kts 334°
2026-04-26 11:21 64.68961 36.14664 36661 ft 460 kts 331°
2026-04-26 11:22 64.74663 36.07828 36660 ft 461 kts 331°
2026-04-26 11:22 64.80359 36.00952 36666 ft 461 kts 331°
2026-04-26 11:23 64.86054 35.94034 36659 ft 461 kts 331°
2026-04-26 11:23 64.91702 35.87084 36680 ft 461 kts 330°
2026-04-26 11:24 64.97382 35.80053 36680 ft 461 kts 330°
2026-04-26 11:24 65.03055 35.72976 36687 ft 461 kts 329°
2026-04-26 11:25 65.08556 35.65200 36679 ft 460 kts 326°
2026-04-26 11:25 65.13924 35.56736 36687 ft 460 kts 324°
2026-04-26 11:26 65.19211 35.48362 36681 ft 460 kts 325°
2026-04-26 11:26 65.24588 35.40058 36699 ft 460 kts 326°
2026-04-26 11:27 65.29999 35.31833 36686 ft 463 kts 326°
2026-04-26 11:27 65.35447 35.23526 36696 ft 465 kts 326°
2026-04-26 11:28 65.40887 35.15147 36698 ft 465 kts 326°
2026-04-26 11:28 65.46318 35.06706 36703 ft 465 kts 326°
2026-04-26 11:29 65.51731 34.98212 36704 ft 464 kts 326°
2026-04-26 11:29 65.57157 34.89685 36711 ft 464 kts 326°
2026-04-26 11:30 65.61668 34.82588 36711 ft 464 kts 325°
2026-04-26 11:30 65.67960 34.72636 36713 ft 464 kts 325°
2026-04-26 11:31 65.73369 34.64048 36715 ft 464 kts 325°
2026-04-26 11:31 65.78762 34.55411 36714 ft 464 kts 325°
2026-04-26 11:32 65.84152 34.46731 36718 ft 464 kts 324°
2026-04-26 11:32 65.89536 34.38016 36720 ft 464 kts 324°
2026-04-26 11:33 65.92230 34.33633 36515 ft 464 kts 325°
2026-04-26 11:33 65.94918 34.29256 36271 ft 463 kts 324°
2026-04-26 11:33 65.97598 34.24889 36027 ft 462 kts 325°
2026-04-26 11:33 66.00281 34.20501 35267 ft 465 kts 324°
2026-04-26 11:34 66.02954 34.16114 34339 ft 468 kts 324°
2026-04-26 11:34 66.05661 34.11628 33429 ft 469 kts 324°
2026-04-26 11:34 66.08358 34.07073 32293 ft 471 kts 323°
2026-04-26 11:34 66.11047 34.02467 31214 ft 471 kts 323°
2026-04-26 11:35 66.13729 33.97843 30158 ft 470 kts 323°
2026-04-26 11:35 66.16398 33.93224 29037 ft 467 kts 323°
2026-04-26 11:35 66.19031 33.88669 28341 ft 456 kts 323°
2026-04-26 11:35 66.20744 33.85706 27854 ft 451 kts 323°
2026-04-26 11:36 66.24149 33.79821 26905 ft 440 kts 323°
2026-04-26 11:36 66.26640 33.75516 26215 ft 433 kts 323°
2026-04-26 11:36 66.29099 33.71260 25550 ft 427 kts 322°
2026-04-26 11:36 66.31512 33.67064 24884 ft 421 kts 322°
2026-04-26 11:37 66.33908 33.62930 24232 ft 416 kts 325°
2026-04-26 11:37 66.36460 33.59592 23587 ft 415 kts 335°
2026-04-26 11:37 66.39210 33.57442 22896 ft 413 kts 345°
2026-04-26 11:37 66.42037 33.56561 22282 ft 410 kts 355°
2026-04-26 11:38 66.44873 33.56398 21725 ft 403 kts 356°
2026-04-26 11:38 66.47657 33.56227 21174 ft 396 kts 356°
2026-04-26 11:38 66.50358 33.56044 20657 ft 390 kts 356°
2026-04-26 11:38 66.53050 33.55850 20157 ft 384 kts 356°
2026-04-26 11:39 66.55736 33.55656 19650 ft 379 kts 356°
2026-04-26 11:39 66.58323 33.55469 19165 ft 374 kts 357°
2026-04-26 11:39 66.60921 33.55283 18689 ft 370 kts 357°
2026-04-26 11:39 66.63472 33.55103 18187 ft 365 kts 358°
2026-04-26 11:40 66.66000 33.54927 17645 ft 361 kts 358°
2026-04-26 11:40 66.68497 33.54755 17149 ft 356 kts 358°
2026-04-26 11:40 66.70956 33.54588 16643 ft 351 kts 358°
2026-04-26 11:40 66.73384 33.54423 16145 ft 347 kts 358°
2026-04-26 11:41 66.75785 33.54262 15655 ft 343 kts 358°
2026-04-26 11:42 66.92006 33.53143 12144 ft 322 kts 358°
2026-04-26 11:43 66.94235 33.52984 11631 ft 319 kts 358°
2026-04-26 11:43 66.96441 33.52828 11144 ft 316 kts 358°
2026-04-26 11:43 66.98606 33.52679 10647 ft 313 kts 358°
2026-04-26 11:43 67.00768 33.52533 10311 ft 305 kts 358°
2026-04-26 11:44 67.02851 33.52387 10179 ft 292 kts 358°
2026-04-26 11:44 67.04846 33.52244 10047 ft 280 kts 358°
2026-04-26 11:44 67.06755 33.52108 9840 ft 271 kts 358°
2026-04-26 11:44 67.08624 33.51980 9631 ft 266 kts 358°
2026-04-26 11:45 67.10475 33.51855 9487 ft 266 kts 358°
2026-04-26 11:45 67.12319 33.51849 9346 ft 265 kts
2026-04-26 11:45 67.14097 33.52808 9190 ft 266 kts 18°
2026-04-26 11:45 67.15778 33.54904 8859 ft 266 kts 32°
2026-04-26 11:46 67.17169 33.57927 8513 ft 266 kts 45°
2026-04-26 11:46 67.18417 33.61429 8356 ft 266 kts 45°
2026-04-26 11:46 67.19675 33.64925 8038 ft 265 kts 45°
2026-04-26 11:46 67.20924 33.68388 7678 ft 262 kts 45°
2026-04-26 11:47 67.22160 33.71819 7319 ft 259 kts 45°
2026-04-26 11:47 67.23384 33.75215 6963 ft 257 kts 45°
2026-04-26 11:47 67.24597 33.78598 6620 ft 255 kts 45°
2026-04-26 11:47 67.25792 33.81940 6269 ft 250 kts 45°
2026-04-26 11:48 67.27040 33.84854 5918 ft 234 kts 36°
2026-04-26 11:48 67.28278 33.87392 5590 ft 221 kts 36°
2026-04-26 11:48 67.29452 33.89807 5284 ft 211 kts 36°
2026-04-26 11:48 67.30578 33.92120 4977 ft 205 kts 36°
2026-04-26 11:49 67.31687 33.94396 4717 ft 203 kts 36°
2026-04-26 11:49 67.32826 33.96561 4417 ft 203 kts 24°
2026-04-26 11:49 67.34182 33.96887 4119 ft 198 kts 342°
2026-04-26 11:49 67.35216 33.94783 3844 ft 190 kts 307°
2026-04-26 11:50 67.35966 33.92036 3591 ft 183 kts 310°
2026-04-26 11:50 67.36753 33.89470 3360 ft 177 kts 312°
2026-04-26 11:50 67.37511 33.87050 3113 ft 170 kts 313°
2026-04-26 11:50 67.38258 33.84676 2858 ft 169 kts 312°
2026-04-26 11:51 67.38987 33.82343 2607 ft 162 kts 312°
2026-04-26 11:51 67.39686 33.80086 2373 ft 157 kts 312°
2026-04-26 11:51 67.40342 33.77961 2178 ft 143 kts 312°
2026-04-26 11:51 67.40938 33.76025 1976 ft 133 kts 311°
2026-04-26 11:52 67.41503 33.74185 1810 ft 128 kts 313°
2026-04-26 11:52 67.41870 33.72986 1685 ft 127 kts 312°
2026-04-26 11:52 67.42600 33.70605 1455 ft 127 kts 312°
2026-04-26 11:52 67.43149 33.68813 1263 ft 126 kts 311°
2026-04-26 11:53 67.43701 33.66989 1120 ft 127 kts 311°
2026-04-26 11:53 67.44257 33.65189 982 ft 128 kts 309°
2026-04-26 11:53 67.44804 33.63389 782 ft 129 kts 311°
2026-04-26 11:54 67.45893 33.59843 519 ft 112 kts 309°
2026-04-26 11:54 67.46206 33.58807 521 ft 30 kts 308°
2026-04-26 11:54 67.46313 33.58455 526 ft 20 kts 308°
2026-04-26 11:54 67.46401 33.58161 523 ft 22 kts 308°
2026-04-26 11:55 67.46501 33.57836 521 ft 24 kts 309°
2026-04-26 11:55 67.46599 33.57507 524 ft 23 kts 307°
2026-04-26 11:55 67.46701 33.57173 523 ft 25 kts 309°
2026-04-26 11:55 67.46814 33.56797 523 ft 27 kts 308°
2026-04-26 11:56 67.46887 33.56551 526 ft 9 kts 307°
2026-04-26 11:56 67.46910 33.56384 525 ft 9 kts 273°
2026-04-26 11:56 67.46930 33.56281 526 ft 6 kts 343°
2026-04-26 11:56 67.46949 33.56317 526 ft 2 kts 72°
2026-04-26 11:57 67.46933 33.56402 525 ft 11 kts 129°
2026-04-26 11:57 67.46867 33.56614 524 ft 19 kts 128°
2026-04-26 11:57 67.46767 33.56950 520 ft 27 kts 128°
2026-04-26 11:57 67.46660 33.57304 524 ft 22 kts 128°
2026-04-26 11:58 67.46569 33.57607 524 ft 22 kts 128°
2026-04-26 11:58 67.46470 33.57933 522 ft 22 kts 127°
2026-04-26 11:58 67.46375 33.58244 528 ft 21 kts 129°
2026-04-26 11:58 67.46297 33.58502 525 ft 16 kts 128°
2026-04-26 11:59 67.46248 33.58654 524 ft 8 kts 145°
2026-04-26 11:59 67.46201 33.58634 522 ft 7 kts 209°
2026-04-26 11:59 67.46164 33.58549 521 ft 7 kts 222°
2026-04-26 11:59 67.46128 33.58475 521 ft 6 kts 217°
2026-04-26 12:00 67.46095 33.58406 521 ft 6 kts 219°
2026-04-26 12:00 67.46067 33.58344 521 ft 5 kts 219°
2026-04-26 12:00 67.46043 33.58294 523 ft 4 kts 219°
2026-04-26 12:00 67.46023 33.58281 520 ft 2 kts 168°
2026-04-26 12:01 67.46010 33.58305 521 ft 4 kts 140°
2026-04-26 12:01 67.45997 33.58344 521 ft 2 kts 130°
2026-04-26 12:01 67.45995 33.58353 521 ft 0 kts 130°